Погода в Керлаюрте

Россия / Чеченская Республика     43°23′54″N   45°18′20″E
темп.,
°C
ветер,
м/с
пор.,
м/с
влажн.,
%
обл.,
%
осадки,
мм/ч
давл.,
гПа
погр.,
м
17 апреля, сб
сб1700:00+12вюв22585 0.0 101811
03:00+11ююв116250 0.0 101810
06:00+11ю11685 0.0 101710
09:00+18ссз325081 0.0 1017522
12:00+20сз664474 0.0 10191306
15:00+19сз6646100 0.0 10191397
18:00+14сз7972100 0.0 1021602
21:00+13сз3673100 0.0 1022515
18 апреля, вс
вс1800:00+12ссз3478100 0.0 1021387
03:00+10ссз3488100 0.0 1021285
06:00+10св1191100 0.0 1021111
09:00+13в337795 0.0 1020723
12:00+17в346186 0.0 10181122
15:00+18всв455598 0.1 10171320
18:00+16всв3563100 0.1 1018118
21:00+12вюв237997 0.3 101966
19 апреля, пн
пн1900:00+11всв1187100 0.1 101914
03:00+10юв3386100 0.1 101840
06:00+11юв2384100 0.0 101877
09:00+16в336178 0.0 1017413
12:00+21в5548100 0.0 1015730
15:00+22в664457 0.0 1014983
18:00+18в695875 0.0 1015406
21:00+12всв2270100 0.0 101527
20 апреля, вт
вт2000:00+11юв337398 0.0 101450
03:00+11юв347397 0.0 101159
06:00+12вюв3675100 0.0 1009150
09:00+17вюв3560100 0.0 1007281
12:00+24в4545100 0.0 1005449
15:00+25всв5543100 0.0 1003502
18:00+19с4668100 0.0 1006179
21:00+16з3478100 0.5 1010108
21 апреля, ср
ср2100:00+14з41083100 0.0 1013364
03:00+12зсз5860100 0.1 1018802
06:00+12з2366100 0.0 1019246
09:00+12ссв1170100 0.0 1020588
12:00+12с2365100 0.0 1020760
15:00+12ссз576399 0.1 1021881
18:00+11ссз4671100 0.0 1022581
21:00+10з357596 0.0 1023284